Flag for Brazil Weather past 2 weeks in Cuiabá, Mato Grosso, Brazil

Now
82 °F

Clear.


Feels Like: 85 °F
Forecast: 75 / 101 °F
Wind: 9 mph from North

Location: Cuiaba Aeroporto

Current Time: Oct 1, 2014 at 3:51:31 AM

Latest Report: Oct 1, 2014 at 3:00 AM


Visibility: 10 mi

Pressure: 29.83 "Hg

Humidity: 58%

Dew point: 66 °F

Location of CuiabáLocation

Historic Weather in Cuiabá — Graph

°F

Cuiabá temperature yesterday

Maximum temperature yesterday: 102 °F (at 2:00 PM)
Minimum temperature yesterday: 81 °F (at 4:00 AM)
Average temperature yesterday: 91 °F

Past Weeks' High & Low Weather Summary

 TemperatureHumidityPressure
High102 °F (Sep 18, 2:00 PM)89% (Sep 20, 7:00 PM)30.04 "Hg (Sep 20, 7:00 PM)
Low72 °F (Sep 21, 5:00 AM)24% (Sep 30, 3:00 PM)29.56 "Hg (Sep 26, 4:00 AM)
Average85 °F58%29.88 "Hg
* Reported Sep 16 2:00 AM — Oct 1 2:00 AM, Cuiabá, Weather by CustomWeather, © 2014

Note: Actual official high and low records may vary slightly from our data, if they occured in-between our weather recording intervals... More about our weather records

Advertising

Cuiabá weather history for previous 24 hours

 ConditionsComfort  
Time TempWeatherWind HumidityBarometerVisibility
2:00 AM
Oct 1
84 °FClear.9 mph55%29.83 "Hg10 mi
1:00 AM82 °FClear.7 mph58%29.86 "Hg10 mi
12:00 AM84 °FClear.9 mph55%29.86 "Hg10 mi
11:00 PM
Sep 30
84 °FClear.5 mph55%29.86 "Hg10 mi
10:00 PM88 °FClear.1 mph46%29.86 "Hg10 mi
9:00 PM90 °FClear.5 mph46%29.86 "Hg10 mi
8:00 PM91 °FClear.3 mph38%29.83 "Hg10 mi
7:00 PM91 °FPassing clouds.5 mph38%29.83 "HgN/A
6:00 PM93 °FPassing clouds.5 mph36%29.80 "HgN/A
5:00 PM99 °FPassing clouds.9 mph27%29.80 "HgN/A
4:00 PM102 °FPassing clouds.7 mph33%29.77 "HgN/A
3:00 PM102 °FScattered clouds.15 mph24%29.80 "HgN/A
2:00 PM102 °FScattered clouds.12 mph26%29.83 "HgN/A
1:00 PM100 °FPassing clouds.9 mph31%29.86 "HgN/A
12:00 PM100 °FPassing clouds.5 mph29%29.89 "HgN/A
11:00 AM99 °FSunny.10 mph33%29.92 "Hg10 mi
10:00 AM97 °FSunny.12 mph39%29.95 "Hg10 mi
9:00 AM93 °FSunny.12 mph49%29.98 "Hg10 mi
8:00 AM91 °FSunny.9 mph46%29.98 "Hg10 mi
7:00 AM86 °FSunny.7 mph55%29.95 "Hg10 mi
6:00 AM81 °FSunny.7 mph70%29.92 "Hg10 mi
5:00 AM81 °FClear.3 mph66%29.89 "Hg10 mi
4:00 AM81 °FClear.3 mph66%29.89 "Hg10 mi
3:00 AM82 °FClear.5 mph62%29.86 "Hg10 mi
Weather by CustomWeather, © 2014

See weather overviewHow to use our weather pages